TimePDT,TemperatureF,Dew PointF,Humidity,Sea Level PressureIn,VisibilityMPH,Wind Direction,Wind SpeedMPH,Gust SpeedMPH,PrecipitationIn,Events,Conditions,WindDirDegrees,DateUTC
12:47 AM,64.9,60.1,84,29.94,8.0,Calm,Calm,-,N/A,,Clear,0,2013-08-17 07:47:00
1:47 AM,64.0,59.0,84,29.94,9.0,Calm,Calm,-,N/A,,Clear,0,2013-08-17 08:47:00
2:47 AM,64.9,59.0,81,29.93,9.0,Calm,Calm,-,N/A,,Clear,0,2013-08-17 09:47:00
3:47 AM,64.0,59.0,84,29.92,7.0,Calm,Calm,-,N/A,,Clear,0,2013-08-17 10:47:00
4:47 AM,63.0,60.1,90,29.92,5.0,Calm,Calm,-,N/A,,Clear,0,2013-08-17 11:47:00
5:47 AM,63.0,59.0,87,29.92,5.0,West,3.5,-,N/A,,Clear,270,2013-08-17 12:47:00
6:33 AM,62.6,59.0,88,29.93,2.5,Calm,Calm,-,N/A,,Clear,0,2013-08-17 13:33:00
6:47 AM,63.0,59.0,87,29.93,2.5,Calm,Calm,-,N/A,,Clear,0,2013-08-17 13:47:00
6:56 AM,62.6,60.8,94,29.93,3.0,Calm,Calm,-,N/A,,Clear,0,2013-08-17 13:56:00
7:11 AM,62.6,60.8,94,29.94,2.5,Calm,Calm,-,N/A,,Mostly Cloudy,0,2013-08-17 14:11:00
7:42 AM,64.4,60.8,88,29.94,3.0,Calm,Calm,-,N/A,,Overcast,0,2013-08-17 14:42:00
7:47 AM,64.9,60.1,84,29.94,3.0,Calm,Calm,-,N/A,,Haze,0,2013-08-17 14:47:00
8:01 AM,66.2,60.8,83,29.94,4.0,Calm,Calm,-,N/A,,Haze,0,2013-08-17 15:01:00
8:47 AM,69.1,60.1,73,29.94,5.0,Calm,Calm,-,N/A,,Haze,0,2013-08-17 15:47:00
9:47 AM,75.0,61.0,62,29.93,5.0,Calm,Calm,-,N/A,,Haze,0,2013-08-17 16:47:00
10:47 AM,80.1,61.0,52,29.93,7.0,Calm,Calm,-,N/A,,Clear,0,2013-08-17 17:47:00
11:47 AM,79.0,60.1,52,29.91,10.0,Variable,3.5,-,N/A,,Clear,0,2013-08-17 18:47:00
12:47 PM,80.1,59.0,48,29.89,10.0,Variable,3.5,-,N/A,,Clear,0,2013-08-17 19:47:00
1:47 PM,80.1,55.9,43,29.88,10.0,Variable,5.8,-,N/A,,Clear,0,2013-08-17 20:47:00
2:47 PM,77.0,57.9,52,29.86,10.0,Variable,4.6,-,N/A,,Clear,0,2013-08-17 21:47:00
3:47 PM,75.9,57.0,52,29.83,10.0,Calm,Calm,-,N/A,,Clear,0,2013-08-17 22:47:00
4:47 PM,73.9,59.0,59,29.83,10.0,Variable,3.5,-,N/A,,Clear,0,2013-08-17 23:47:00
5:47 PM,73.0,57.0,57,29.81,10.0,WNW,5.8,-,N/A,,Clear,290,2013-08-18 00:47:00
6:47 PM,71.1,57.9,63,29.81,10.0,Variable,3.5,-,N/A,,Clear,0,2013-08-18 01:47:00
7:47 PM,66.9,59.0,76,29.82,10.0,Calm,Calm,-,N/A,,Clear,0,2013-08-18 02:47:00
8:47 PM,66.0,60.1,81,29.84,10.0,Calm,Calm,-,N/A,,Clear,0,2013-08-18 03:47:00
9:47 PM,64.9,60.1,84,29.85,10.0,Calm,Calm,-,N/A,,Clear,0,2013-08-18 04:47:00
10:47 PM,64.9,60.1,84,29.86,10.0,Calm,Calm,-,N/A,,Clear,0,2013-08-18 05:47:00
11:47 PM,64.9,60.1,84,29.86,10.0,Calm,Calm,-,N/A,,Clear,0,2013-08-18 06:47:00